TimeCST,TemperatureF,Dew PointF,Humidity,Sea Level PressureIn,VisibilityMPH,Wind Direction,Wind SpeedMPH,Gust SpeedMPH,PrecipitationIn,Events,Conditions,WindDirDegrees,DateUTC
12:53 AM,27.0,19.0,72,30.03,10.0,Calm,Calm,-,N/A,,Clear,0,2012-12-07 06:53:00
1:53 AM,25.0,19.0,78,30.04,10.0,WNW,4.6,-,N/A,,Clear,290,2012-12-07 07:53:00
2:53 AM,25.0,19.0,78,30.05,10.0,Calm,Calm,-,N/A,,Clear,0,2012-12-07 08:53:00
3:53 AM,26.1,19.0,75,30.04,10.0,NNW,3.5,-,N/A,,Clear,340,2012-12-07 09:53:00
4:53 AM,25.0,19.0,78,30.04,10.0,Calm,Calm,-,N/A,,Clear,0,2012-12-07 10:53:00
5:53 AM,25.0,19.0,78,30.04,10.0,Calm,Calm,-,N/A,,Clear,0,2012-12-07 11:53:00
6:53 AM,23.0,19.0,85,30.05,10.0,Calm,Calm,-,N/A,,Clear,0,2012-12-07 12:53:00
7:53 AM,21.9,18.0,85,30.05,8.0,Calm,Calm,-,N/A,,Clear,0,2012-12-07 13:53:00
8:53 AM,26.1,21.0,81,30.06,8.0,Calm,Calm,-,N/A,,Overcast,0,2012-12-07 14:53:00
9:53 AM,28.0,21.0,75,30.07,10.0,Calm,Calm,-,N/A,,Overcast,0,2012-12-07 15:53:00
10:53 AM,28.9,21.0,72,30.08,10.0,NNW,3.5,-,N/A,,Overcast,330,2012-12-07 16:53:00
11:53 AM,30.9,21.9,69,30.07,10.0,NNW,3.5,-,N/A,,Overcast,340,2012-12-07 17:53:00
12:53 PM,30.9,21.9,69,30.07,10.0,NW,8.1,-,N/A,,Overcast,320,2012-12-07 18:53:00
1:53 PM,30.0,23.0,75,30.06,2.5,NNW,8.1,-,0.00,Snow,Light Snow,330,2012-12-07 19:53:00
2:08 PM,28.4,24.8,86,30.02,1.0,North,9.2,-,0.00,Snow,Light Snow,350,2012-12-07 20:08:00
2:22 PM,28.4,24.8,86,30.01,0.8,North,10.4,-,0.00,Snow,Light Snow,360,2012-12-07 20:22:00
2:53 PM,28.9,25.0,85,30.05,0.8,North,6.9,-,0.00,Snow,Light Snow,360,2012-12-07 20:53:00
3:01 PM,28.4,24.8,86,30.01,1.0,North,6.9,-,0.00,Snow,Light Snow,360,2012-12-07 21:01:00
3:42 PM,28.4,26.6,93,30.01,1.5,NNE,5.8,-,0.01,Snow,Light Snow,30,2012-12-07 21:42:00
3:53 PM,28.9,26.1,89,30.05,1.5,NNE,8.1,-,0.01,Snow,Light Snow,30,2012-12-07 21:53:00
4:23 PM,28.4,26.6,93,30.02,1.5,NNE,5.8,-,0.00,Snow,Light Snow,20,2012-12-07 22:23:00
4:53 PM,28.9,25.0,85,30.05,1.5,NNE,8.1,-,0.00,Snow,Light Snow,20,2012-12-07 22:53:00
5:07 PM,28.4,24.8,86,30.01,1.2,NNE,5.8,-,0.00,Snow,Light Snow,30,2012-12-07 23:07:00
5:53 PM,28.9,25.0,85,30.06,1.5,NNE,5.8,-,0.00,Snow,Light Snow,30,2012-12-07 23:53:00
6:10 PM,28.4,26.6,93,30.02,1.5,NNE,5.8,-,0.01,Snow,Light Snow,30,2012-12-08 00:10:00
6:39 PM,28.4,24.8,86,30.02,2.0,NNE,5.8,-,0.01,Snow,Light Snow,30,2012-12-08 00:39:00
7:07 PM,28.4,24.8,86,30.02,3.0,NNE,5.8,-,0.00,Snow,Light Snow,30,2012-12-08 01:07:00
7:21 PM,28.4,24.8,86,30.02,3.0,NNE,4.6,-,0.00,Snow,Light Snow,20,2012-12-08 01:21:00
7:30 PM,28.4,24.8,86,30.03,2.5,NNE,3.5,-,0.00,Snow,Light Snow,30,2012-12-08 01:30:00
7:53 PM,28.0,25.0,88,30.06,2.5,NNE,6.9,-,0.00,Snow,Light Snow,30,2012-12-08 01:53:00
8:22 PM,28.4,24.8,86,30.02,3.0,NE,4.6,-,0.00,Snow,Light Snow,50,2012-12-08 02:22:00
8:42 PM,28.4,24.8,86,30.02,3.0,NE,3.5,-,0.00,Snow,Light Snow,40,2012-12-08 02:42:00
8:53 PM,28.0,25.0,88,30.06,4.0,NE,3.5,-,0.00,,Overcast,40,2012-12-08 02:53:00
9:01 PM,28.4,24.8,86,30.02,5.0,NE,4.6,-,N/A,,Overcast,40,2012-12-08 03:01:00
9:53 PM,28.0,25.0,88,30.06,4.0,Calm,Calm,-,N/A,,Overcast,0,2012-12-08 03:53:00
10:05 PM,28.4,24.8,86,30.02,4.0,Calm,Calm,-,N/A,,Overcast,0,2012-12-08 04:05:00
10:23 PM,28.4,24.8,86,30.02,2.5,Calm,Calm,-,0.00,Snow,Light Snow,0,2012-12-08 04:23:00
10:53 PM,28.0,25.0,88,30.05,1.8,Calm,Calm,-,0.00,Snow,Light Snow,0,2012-12-08 04:53:00
11:02 PM,26.6,24.8,93,30.02,2.0,Calm,Calm,-,0.00,Snow,Light Snow,0,2012-12-08 05:02:00
11:50 PM,26.6,24.8,93,30.02,3.0,North,3.5,-,0.00,,Overcast,360,2012-12-08 05:50:00
11:53 PM,26.1,24.1,92,30.06,3.0,North,3.5,-,0.00,,Overcast,10,2012-12-08 05:53:00